| time (UTC) | temp F | wind direction | speed MPH | gust MPH | rain 1hr in | rain 24hr in | rain mn in | humidity % | barometer mb |
| 20260831121846 | 87 | 217 | 3.0 | 7.0 | 0.00 | 0.00 | 0.00 | 74 | |
| 20260831121337 | 87 | 111 | 4.0 | 7.0 | 0.00 | 0.00 | 0.00 | 76 | |
| 20260831120832 | 86 | 61 | 4.0 | 7.0 | 0.00 | 0.00 | 0.00 | 77 | |
| 20260831120331 | 86 | 19 | 2.0 | 8.0 | 0.00 | 0.00 | 0.00 | 78 | |
| 20260831115827 | 85 | 353 | 1.0 | 4.0 | 0.00 | 0.00 | 0.00 | 80 | |
| 20260831115323 | 85 | 143 | 2.0 | 4.0 | 0.00 | 0.00 | 0.00 | 80 | |
| 20260831114822 | 85 | 233 | 3.0 | 7.0 | 0.00 | 0.00 | 0.00 | 79 | |
| 20260831114321 | 86 | 97 | 4.0 | 6.0 | 0.00 | 0.00 | 0.00 | 79 | |
| 20260831113818 | 86 | 338 | 1.0 | 6.0 | 0.00 | 0.00 | 0.00 | 80 | |
| 20260831113317 | 85 | 270 | 1.0 | 8.0 | 0.00 | 0.00 | 0.00 | 80 | |
| 20260831112812 | 85 | 352 | 1.0 | 4.0 | 0.00 | 0.00 | 0.00 | 81 | |
| 20260831112307 | 84 | 349 | 1.0 | 7.0 | 0.00 | 0.00 | 0.00 | 82 | |
| 20260831111802 | 84 | 73 | 1.0 | 4.0 | 0.00 | 0.00 | 0.00 | 82 | |
| 20260831111258 | 84 | 354 | 1.0 | 3.0 | 0.00 | 0.00 | 0.00 | 83 | |
| 20260831110754 | 84 | 89 | 1.0 | 3.0 | 0.00 | 0.00 | 0.00 | 83 | |
| 20260831110249 | 83 | 20 | 3.0 | 7.0 | 0.00 | 0.00 | 0.00 | 84 | |
| 20260831105747 | 83 | 82 | 2.0 | 6.0 | 0.00 | 0.00 | 0.00 | 84 | |
| 20260831105243 | 83 | 36 | 3.0 | 6.0 | 0.00 | 0.00 | 0.00 | 84 | |
| 20260831104738 | 83 | 12 | 2.0 | 6.0 | 0.00 | 0.00 | 0.00 | 85 | |
| 20260831104235 | 83 | 26 | 1.0 | 3.0 | 0.00 | 0.00 | 0.00 | 85 | |
| 20260831103734 | 83 | 342 | 0.0 | 8.0 | 0.00 | 0.00 | 0.00 | 85 | |
| 20260831103230 | 83 | 327 | 2.0 | 2.0 | 0.00 | 0.00 | 0.00 | 85 | |
| 20260831102729 | 83 | 18 | 2.0 | 4.0 | 0.00 | 0.00 | 0.00 | 85 | |
| 20260831102224 | 83 | 280 | 3.0 | 8.0 | 0.00 | 0.00 | 0.00 | 85 | |
| 20260831101720 | 83 | 244 | 2.0 | 3.0 | 0.00 | 0.00 | 0.00 | 85 | |
| 20260831101215 | 83 | 3 | 2.0 | 6.0 | 0.00 | 0.00 | 0.00 | 85 | |
| 20260831100711 | 83 | 339 | 1.0 | 2.0 | 0.00 | 0.00 | 0.00 | 85 | |
| 20260831100207 | 83 | 147 | 2.0 | 3.0 | 0.00 | 0.00 | 0.00 | 84 | |
| 20260831095705 | 83 | 334 | 1.0 | 3.0 | 0.00 | 0.00 | 0.00 | 84 | |
| 20260831095200 | 83 | 358 | 1.0 | 3.0 | 0.00 | 0.00 | 0.00 | 84 | |
| 20260831094655 | 83 | 17 | 2.0 | 4.0 | 0.00 | 0.00 | 0.00 | 84 | |
| 20260831094152 | 83 | 40 | 2.0 | 3.0 | 0.00 | 0.00 | 0.00 | 84 | |
| 20260831093647 | 83 | 25 | 0.0 | 2.0 | 0.00 | 0.00 | 0.00 | 84 | |
| 20260831093143 | 83 | 343 | 2.0 | 4.0 | 0.00 | 0.00 | 0.00 | 83 | |
| 20260831092639 | 83 | 163 | 2.0 | 3.0 | 0.00 | 0.00 | 0.00 | 83 | |
| 20260831092134 | 83 | 347 | 1.0 | 6.0 | 0.00 | 0.00 | 0.00 | 83 | |
| 20260831091634 | 83 | 320 | 1.0 | 2.0 | 0.00 | 0.00 | 0.00 | 83 | |
| 20260831091130 | 83 | 337 | 3.0 | 6.0 | 0.00 | 0.00 | 0.00 | 83 | |
| 20260831090625 | 83 | 119 | 1.0 | 3.0 | 0.00 | 0.00 | 0.00 | 82 | |
| 20260831090121 | 83 | 299 | 0.0 | 2.0 | 0.00 | 0.00 | 0.00 | 82 | |
| 20260831085616 | 83 | 267 | 2.0 | 4.0 | 0.00 | 0.00 | 0.00 | 82 | |
| 20260831085111 | 83 | 196 | 4.0 | 7.0 | 0.00 | 0.00 | 0.00 | 82 | |
| 20260831084607 | 83 | 78 | 1.0 | 7.0 | 0.00 | 0.00 | 0.00 | 83 | |
| 20260831084103 | 83 | 14 | 1.0 | 2.0 | 0.00 | 0.00 | 0.00 | 83 | |
| 20260831083559 | 83 | 259 | 1.0 | 4.0 | 0.00 | 0.00 | 0.00 | 83 | |
| 20260831083054 | 83 | 359 | 1.0 | 6.0 | 0.00 | 0.00 | 0.00 | 83 | |
| 20260831082553 | 83 | 32 | 2.0 | 4.0 | 0.00 | 0.00 | 0.00 | 82 | |
| 20260831082048 | 83 | 284 | 0.0 | 3.0 | 0.00 | 0.00 | 0.00 | 82 | |
| 20260831081544 | 83 | 7 | 2.0 | 4.0 | 0.00 | 0.00 | 0.00 | 83 | |
| 20260831081040 | 83 | 3 | 2.0 | 6.0 | 0.00 | 0.00 | 0.00 | 83 | |
| 20260831080534 | 83 | 222 | 0.0 | 6.0 | 0.00 | 0.00 | 0.00 | 83 | |
| 20260831080029 | 83 | 19 | 4.0 | 6.0 | 0.00 | 0.00 | 0.00 | 83 | |
| 20260831075525 | 83 | 352 | 3.0 | 9.0 | 0.00 | 0.00 | 0.00 | 84 | |
| 20260831075020 | 83 | 110 | 2.0 | 11.0 | 0.00 | 0.00 | 0.00 | 84 | |
| 20260831074520 | 83 | 270 | 3.0 | 6.0 | 0.00 | 0.00 | 0.00 | 84 | |
| 20260831074020 | 83 | 60 | 2.0 | 7.0 | 0.00 | 0.00 | 0.00 | 84 | |
| 20260831073515 | 83 | 343 | 2.0 | 3.0 | 0.00 | 0.00 | 0.00 | 84 | |
| 20260831073014 | 83 | 49 | 2.0 | 7.0 | 0.00 | 0.00 | 0.00 | 84 | |
| 20260831072509 | 83 | 350 | 2.0 | 4.0 | 0.00 | 0.00 | 0.00 | 84 | |
| 20260831072006 | 83 | 309 | 2.0 | 4.0 | 0.00 | 0.00 | 0.00 | 84 | |
| 20260831071504 | 83 | 344 | 1.0 | 7.0 | 0.00 | 0.00 | 0.00 | 84 | |
| 20260831071001 | 83 | 337 | 3.0 | 6.0 | 0.00 | 0.00 | 0.00 | 84 | |
| 20260831070459 | 83 | 336 | 2.0 | 3.0 | 0.00 | 0.00 | 0.00 | 84 | |
| 20260831065958 | 83 | 145 | 2.0 | 7.0 | 0.00 | 0.00 | 0.00 | 84 | |
| 20260831065456 | 83 | 355 | 3.0 | 6.0 | 0.00 | 0.00 | 0.00 | 84 | |
| 20260831064951 | 83 | 300 | 0.0 | 3.0 | 0.00 | 0.00 | 0.00 | 85 | |
| 20260831064446 | 83 | 355 | 1.0 | 2.0 | 0.00 | 0.00 | 0.00 | 85 | |
| 20260831063942 | 83 | 347 | 2.0 | 6.0 | 0.00 | 0.00 | 0.00 | 85 | |
| 20260831063437 | 83 | 335 | 2.0 | 8.0 | 0.00 | 0.00 | 0.00 | 84 | |
| 20260831062931 | 83 | 337 | 2.0 | 4.0 | 0.00 | 0.00 | 0.00 | 85 | |
| 20260831062429 | 83 | 348 | 4.0 | 7.0 | 0.00 | 0.00 | 0.00 | 84 | |
| 20260831061926 | 83 | 10 | 1.0 | 9.0 | 0.00 | 0.00 | 0.00 | 84 | |
| 20260831061424 | 83 | 81 | 1.0 | 3.0 | 0.00 | 0.00 | 0.00 | 84 | |
| 20260831060922 | 83 | 237 | 2.0 | 3.0 | 0.00 | 0.00 | 0.00 | 84 | |
| 20260831060421 | 83 | 352 | 1.0 | 3.0 | 0.00 | 0.00 | 0.00 | 84 | |
| 20260831055921 | 83 | 4 | 1.0 | 6.0 | 0.00 | 0.00 | 0.00 | 84 | |
| 20260831055416 | 83 | 312 | 2.0 | 4.0 | 0.00 | 0.00 | 0.00 | 84 | |
| 20260831054911 | 83 | 353 | 1.0 | 3.0 | 0.00 | 0.00 | 0.00 | 84 | |
| 20260831054407 | 84 | 11 | 2.0 | 4.0 | 0.00 | 0.00 | 0.00 | 84 | |
| 20260831053905 | 83 | 302 | 1.0 | 4.0 | 0.00 | 0.00 | 0.00 | 84 | |
| 20260831053404 | 83 | 38 | 4.0 | 7.0 | 0.00 | 0.00 | 0.00 | 84 | |
| 20260831052859 | 84 | 86 | 2.0 | 4.0 | 0.00 | 0.00 | 0.00 | 84 | |
| 20260831052358 | 84 | 291 | 3.0 | 9.0 | 0.00 | 0.00 | 0.00 | 84 | |
| 20260831051857 | 84 | 300 | 3.0 | 7.0 | 0.00 | 0.00 | 0.00 | 84 | |
| 20260831051355 | 84 | 253 | 1.0 | 3.0 | 0.00 | 0.00 | 0.00 | 84 | |
| 20260831050850 | 84 | 326 | 1.0 | 3.0 | 0.00 | 0.00 | 0.00 | 84 | |
| 20260831050349 | 84 | 329 | 3.0 | 4.0 | 0.00 | 0.00 | 0.00 | 84 | |
| 20260831045843 | 84 | 195 | 4.0 | 7.0 | 0.00 | 0.00 | 0.00 | 84 | |
| 20260831045337 | 84 | 184 | 1.0 | 4.0 | 0.00 | 0.00 | 0.00 | 84 | |
| 20260831044832 | 84 | 230 | 3.0 | 6.0 | 0.00 | 0.00 | 0.00 | 84 | |
| 20260831044327 | 84 | 91 | 2.0 | 7.0 | 0.00 | 0.00 | 0.00 | 84 | |
| 20260831043824 | 84 | 295 | 1.0 | 6.0 | 0.00 | 0.00 | 0.00 | 84 | |
| 20260831043323 | 84 | 353 | 1.0 | 6.0 | 0.00 | 0.00 | 0.00 | 83 | |
| 20260831042818 | 84 | 125 | 2.0 | 4.0 | 0.00 | 0.00 | 0.00 | 83 | |
| 20260831042318 | 84 | 355 | 2.0 | 8.0 | 0.00 | 0.00 | 0.00 | 83 | |
| 20260831041813 | 84 | 25 | 2.0 | 3.0 | 0.00 | 0.00 | 0.00 | 83 | |
| 20260831041312 | 84 | 260 | 1.0 | 2.0 | 0.00 | 0.00 | 0.00 | 83 | |
| 20260831040807 | 84 | 326 | 1.0 | 2.0 | 0.00 | 0.00 | 0.00 | 83 | |
| 20260831040306 | 84 | 328 | 0.0 | 6.0 | 0.00 | 0.00 | 0.00 | 83 | |
| 20260831035805 | 84 | 216 | 2.0 | 4.0 | 0.00 | 0.00 | 0.00 | 83 | |
| 20260831035306 | 84 | 87 | 2.0 | 3.0 | 0.00 | 0.00 | 0.00 | 82 | |
| 20260831034803 | 84 | 265 | 2.0 | 6.0 | 0.00 | 0.00 | 0.00 | 82 | |
| 20260831034259 | 84 | 4 | 2.0 | 6.0 | 0.00 | 0.00 | 0.00 | 82 | |
| 20260831033754 | 84 | 347 | 2.0 | 4.0 | 0.00 | 0.00 | 0.00 | 82 | |
| 20260831033249 | 84 | 6 | 2.0 | 3.0 | 0.00 | 0.00 | 0.00 | 82 | |
| 20260831032744 | 84 | 109 | 6.0 | 7.0 | 0.00 | 0.00 | 0.00 | 82 | |
| 20260831032239 | 84 | 356 | 0.0 | 1.0 | 0.00 | 0.00 | 0.00 | 82 | |
| 20260831031734 | 84 | 161 | 1.0 | 3.0 | 0.00 | 0.00 | 0.00 | 82 | |
| 20260831031229 | 84 | 75 | 2.0 | 4.0 | 0.00 | 0.00 | 0.00 | 82 | |
| 20260831030728 | 84 | 352 | 2.0 | 4.0 | 0.00 | 0.00 | 0.00 | 82 | |
| 20260831030227 | 84 | 62 | 0.0 | 2.0 | 0.00 | 0.00 | 0.00 | 82 | |
| 20260831025726 | 84 | 344 | 1.0 | 4.0 | 0.00 | 0.00 | 0.00 | 82 | |
| 20260831025220 | 84 | 26 | 2.0 | 4.0 | 0.00 | 0.00 | 0.00 | 82 | |
| 20260831024716 | 84 | 352 | 1.0 | 3.0 | 0.00 | 0.00 | 0.00 | 81 | |
| 20260831024209 | 84 | 311 | 1.0 | 3.0 | 0.00 | 0.00 | 0.00 | 81 | |
| 20260831023707 | 84 | 166 | 2.0 | 3.0 | 0.00 | 0.00 | 0.00 | 81 | |
| 20260831023202 | 84 | 348 | 1.0 | 4.0 | 0.00 | 0.00 | 0.00 | 81 | |
| 20260831022657 | 84 | 212 | 2.0 | 4.0 | 0.00 | 0.00 | 0.00 | 81 | |
| 20260831022151 | 84 | 42 | 1.0 | 4.0 | 0.00 | 0.00 | 0.00 | 81 | |
| 20260831021651 | 84 | 52 | 3.0 | 4.0 | 0.00 | 0.00 | 0.00 | 81 | |
| 20260831021146 | 84 | 255 | 1.0 | 7.0 | 0.00 | 0.00 | 0.00 | 81 | |
| 20260831020642 | 84 | 33 | 3.0 | 4.0 | 0.00 | 0.00 | 0.00 | 81 | |
| 20260831020136 | 84 | 66 | 2.0 | 3.0 | 0.00 | 0.00 | 0.00 | 81 | |
| 20260831015632 | 85 | 115 | 2.0 | 4.0 | 0.00 | 0.00 | 0.00 | 81 | |
| 20260831015131 | 85 | 17 | 2.0 | 3.0 | 0.00 | 0.00 | 0.00 | 80 | |
| 20260831014626 | 85 | 42 | 1.0 | 4.0 | 0.00 | 0.00 | 0.00 | 80 | |
| 20260831014121 | 85 | 342 | 1.0 | 3.0 | 0.00 | 0.00 | 0.00 | 80 | |
| 20260831013618 | 85 | 343 | 2.0 | 3.0 | 0.00 | 0.00 | 0.00 | 80 | |
| 20260831013117 | 85 | 21 | 1.0 | 4.0 | 0.00 | 0.00 | 0.00 | 80 | |
| 20260831012612 | 85 | 2 | 2.0 | 4.0 | 0.00 | 0.00 | 0.00 | 80 | |
| 20260831012107 | 85 | 340 | 2.0 | 6.0 | 0.00 | 0.00 | 0.00 | 80 | |
| 20260831011606 | 85 | 349 | 1.0 | 4.0 | 0.00 | 0.00 | 0.00 | 80 | |
| 20260831011102 | 85 | 345 | 1.0 | 3.0 | 0.00 | 0.00 | 0.00 | 80 | |
| 20260831010557 | 85 | 305 | 1.0 | 3.0 | 0.00 | 0.00 | 0.00 | 79 | |
| 20260831010054 | 85 | 349 | 2.0 | 2.0 | 0.00 | 0.00 | 0.00 | 79 | |
| 20260831005548 | 85 | 325 | 0.0 | 4.0 | 0.00 | 0.00 | 0.00 | 79 | |
| 20260831005048 | 85 | 76 | 0.0 | 3.0 | 0.00 | 0.00 | 0.00 | 78 | |
| 20260831004544 | 85 | 289 | 2.0 | 4.0 | 0.00 | 0.00 | 0.00 | 78 | |
| 20260831004039 | 86 | 38 | 2.0 | 4.0 | 0.00 | 0.00 | 0.00 | 78 | |
| 20260831003536 | 86 | 346 | 1.0 | 2.0 | 0.00 | 0.00 | 0.00 | 77 | |
| 20260831003031 | 86 | 183 | 1.0 | 3.0 | 0.00 | 0.00 | 0.00 | 77 | |
| 20260831002530 | 86 | 70 | 2.0 | 4.0 | 0.00 | 0.00 | 0.00 | 76 | |
| 20260831002025 | 86 | 121 | 2.0 | 4.0 | 0.00 | 0.00 | 0.00 | 76 | |
| 20260831001521 | 86 | 330 | 2.0 | 4.0 | 0.00 | 0.00 | 0.00 | 75 | |
| 20260831001017 | 86 | 35 | 2.0 | 8.0 | 0.00 | 0.00 | 0.00 | 75 | |
| 20260831000513 | 86 | 347 | 0.0 | 2.0 | 0.00 | 0.00 | 0.00 | 76 | |
| 20260831000012 | 86 | 60 | 1.0 | 6.0 | 0.00 | 0.00 | 0.00 | 76 | |
| 20260830235506 | 86 | 354 | 2.0 | 3.0 | 0.00 | 0.00 | 0.00 | 76 | |
| 20260830235001 | 86 | 280 | 0.0 | 3.0 | 0.00 | 0.00 | 0.00 | 76 | |
| 20260830234456 | 86 | 19 | 1.0 | 4.0 | 0.00 | 0.00 | 0.00 | 76 | |
| 20260830233952 | 86 | 342 | 1.0 | 2.0 | 0.00 | 0.00 | 0.00 | 75 | |
| 20260830233447 | 86 | 69 | 1.0 | 3.0 | 0.00 | 0.00 | 0.00 | 75 | |
| 20260830232943 | 86 | 347 | 0.0 | 3.0 | 0.00 | 0.00 | 0.00 | 75 | |
| 20260830232439 | 86 | 13 | 0.0 | 3.0 | 0.00 | 0.00 | 0.00 | 75 | |
| 20260830231935 | 86 | 359 | 1.0 | 3.0 | 0.00 | 0.00 | 0.00 | 75 | |
| 20260830231430 | 86 | 25 | 2.0 | 3.0 | 0.00 | 0.00 | 0.00 | 75 | |
| 20260830230929 | 86 | 346 | 1.0 | 3.0 | 0.00 | 0.00 | 0.00 | 74 | |
| 20260830230425 | 86 | 330 | 2.0 | 14.0 | 0.00 | 0.00 | 0.00 | 74 | |
| 20260830225924 | 86 | 14 | 1.0 | 4.0 | 0.00 | 0.00 | 0.00 | 73 | |
| 20260830225420 | 87 | 22 | 3.0 | 4.0 | 0.00 | 0.00 | 0.00 | 73 | |
| 20260830224914 | 87 | 21 | 2.0 | 4.0 | 0.00 | 0.00 | 0.00 | 72 | |
| 20260830224413 | 87 | 350 | 1.0 | 3.0 | 0.00 | 0.00 | 0.00 | 71 | |
| 20260830223910 | 87 | 49 | 3.0 | 7.0 | 0.00 | 0.00 | 0.00 | 71 | |
| 20260830223406 | 87 | 354 | 1.0 | 3.0 | 0.00 | 0.00 | 0.00 | 70 | |
| 20260830222905 | 88 | 336 | 1.0 | 7.0 | 0.00 | 0.00 | 0.00 | 69 | |
| 20260830222401 | 89 | 354 | 0.0 | 3.0 | 0.00 | 0.00 | 0.00 | 68 | |
| 20260830221856 | 89 | 27 | 1.0 | 4.0 | 0.00 | 0.00 | 0.00 | 68 | |
| 20260830221352 | 89 | 356 | 1.0 | 2.0 | 0.00 | 0.00 | 0.00 | 68 | |
| 20260830220848 | 89 | 312 | 1.0 | 4.0 | 0.00 | 0.00 | 0.00 | 67 | |
| 20260830220342 | 89 | 352 | 2.0 | 6.0 | 0.00 | 0.00 | 0.00 | 67 | |
| 20260830215839 | 88 | 0 | 2.0 | 6.0 | 0.00 | 0.00 | 0.00 | 68 | |
| 20260830215339 | 88 | 2 | 1.0 | 2.0 | 0.00 | 0.00 | 0.00 | 69 | |
| 20260830214834 | 88 | 339 | 3.0 | 4.0 | 0.00 | 0.00 | 0.00 | 69 | |
| 20260830214330 | 89 | 8 | 2.0 | 6.0 | 0.00 | 0.00 | 0.00 | 70 | |
| 20260830213829 | 88 | 64 | 4.0 | 6.0 | 0.00 | 0.00 | 0.00 | 71 | |
| 20260830213325 | 88 | 98 | 3.0 | 8.0 | 0.00 | 0.00 | 0.00 | 71 | |
| 20260830212820 | 88 | 27 | 3.0 | 10.0 | 0.00 | 0.00 | 0.00 | 71 | |
| 20260830212316 | 88 | 55 | 2.0 | 6.0 | 0.00 | 0.00 | 0.00 | 72 | |
| 20260830211814 | 88 | 96 | 8.0 | 11.0 | 0.00 | 0.00 | 0.00 | 71 | |
| 20260830211309 | 88 | 11 | 3.0 | 6.0 | 0.00 | 0.00 | 0.00 | 72 | |
| 20260830210805 | 88 | 354 | 5.0 | 9.0 | 0.00 | 0.00 | 0.00 | 73 | |
| 20260830210303 | 88 | 107 | 4.0 | 9.0 | 0.00 | 0.00 | 0.00 | 73 | |
| 20260830205802 | 89 | 326 | 3.0 | 6.0 | 0.00 | 0.00 | 0.00 | 72 | |
| 20260830205256 | 89 | 27 | 0.0 | 2.0 | 0.00 | 0.00 | 0.00 | 72 | |
| 20260830204751 | 89 | 39 | 3.0 | 9.0 | 0.00 | 0.00 | 0.00 | 71 | |
| 20260830204250 | 89 | 338 | 2.0 | 7.0 | 0.00 | 0.00 | 0.00 | 71 | |
| 20260830203746 | 89 | 28 | 1.0 | 8.0 | 0.00 | 0.00 | 0.00 | 71 | |
| 20260830203242 | 89 | 326 | 4.0 | 8.0 | 0.00 | 0.00 | 0.00 | 71 | |
| 20260830202741 | 89 | 103 | 2.0 | 6.0 | 0.00 | 0.00 | 0.00 | 70 | |
| 20260830202237 | 89 | 62 | 2.0 | 6.0 | 0.00 | 0.00 | 0.00 | 70 | |
| 20260830201736 | 89 | 100 | 3.0 | 7.0 | 0.00 | 0.00 | 0.00 | 70 | |
| 20260830201232 | 89 | 326 | 1.0 | 7.0 | 0.00 | 0.00 | 0.00 | 70 | |
| 20260830200727 | 89 | 17 | 3.0 | 7.0 | 0.00 | 0.00 | 0.00 | 70 | |
| 20260830200226 | 89 | 23 | 4.0 | 7.0 | 0.00 | 0.00 | 0.00 | 70 | |
| 20260830195722 | 89 | 355 | 4.0 | 7.0 | 0.00 | 0.00 | 0.00 | 72 | |
| 20260830195220 | 89 | 74 | 4.0 | 7.0 | 0.00 | 0.00 | 0.00 | 71 | |
| 20260830194718 | 89 | 342 | 2.0 | 4.0 | 0.00 | 0.00 | 0.00 | 71 | |
| 20260830194214 | 89 | 353 | 1.0 | 8.0 | 0.00 | 0.00 | 0.00 | 71 | |
| 20260830193708 | 90 | 22 | 3.0 | 8.0 | 0.00 | 0.00 | 0.00 | 70 | |
| 20260830193203 | 89 | 254 | 4.0 | 10.0 | 0.00 | 0.00 | 0.00 | 70 | |
| 20260830192658 | 89 | 93 | 3.0 | 8.0 | 0.00 | 0.00 | 0.00 | 71 | |
| 20260830192153 | 89 | 113 | 4.0 | 8.0 | 0.00 | 0.00 | 0.00 | 71 | |
| 20260830191649 | 89 | 65 | 3.0 | 13.0 | 0.00 | 0.00 | 0.00 | 70 | |
| 20260830191143 | 90 | 352 | 1.0 | 7.0 | 0.00 | 0.00 | 0.00 | 71 | |
| 20260830190639 | 91 | 81 | 3.0 | 4.0 | 0.00 | 0.00 | 0.00 | 68 | |
| 20260830190133 | 92 | 36 | 2.0 | 8.0 | 0.00 | 0.00 | 0.00 | 66 | |
| 20260830185632 | 94 | 73 | 5.0 | 9.0 | 0.00 | 0.00 | 0.00 | 61 | |
| 20260830185128 | 94 | 345 | 1.0 | 4.0 | 0.00 | 0.00 | 0.00 | 62 | |
| 20260830184626 | 94 | 123 | 4.0 | 6.0 | 0.00 | 0.00 | 0.00 | 59 | |
| 20260830184121 | 93 | 58 | 1.0 | 6.0 | 0.00 | 0.00 | 0.00 | 61 | |
| 20260830183616 | 93 | 285 | 2.0 | 7.0 | 0.00 | 0.00 | 0.00 | 61 | |
| 20260830183112 | 93 | 76 | 4.0 | 10.0 | 0.00 | 0.00 | 0.00 | 62 | |
| 20260830182612 | 94 | 68 | 2.0 | 10.0 | 0.00 | 0.00 | 0.00 | 61 | |
| 20260830182108 | 93 | 333 | 2.0 | 4.0 | 0.00 | 0.00 | 0.00 | 61 | |
| 20260830181604 | 93 | 290 | 3.0 | 6.0 | 0.00 | 0.00 | 0.00 | 61 | |
| 20260830181104 | 93 | 64 | 1.0 | 6.0 | 0.00 | 0.00 | 0.00 | 62 | |
| 20260830180603 | 91 | 84 | 4.0 | 7.0 | 0.00 | 0.00 | 0.00 | 63 | |
| 20260830180058 | 91 | 43 | 8.0 | 11.0 | 0.00 | 0.00 | 0.00 | 64 | |
| 20260830175557 | 92 | 56 | 4.0 | 7.0 | 0.00 | 0.00 | 0.00 | 62 | |
| 20260830175053 | 92 | 358 | 2.0 | 3.0 | 0.00 | 0.00 | 0.00 | 62 | |
| 20260830174548 | 92 | 73 | 2.0 | 4.0 | 0.00 | 0.00 | 0.00 | 61 | |
| 20260830174043 | 93 | 65 | 5.0 | 11.0 | 0.00 | 0.00 | 0.00 | 59 | |
| 20260830173538 | 93 | 233 | 5.0 | 7.0 | 0.00 | 0.00 | 0.00 | 59 | |
| 20260830173033 | 93 | 352 | 1.0 | 7.0 | 0.00 | 0.00 | 0.00 | 59 | |
| 20260830172531 | 93 | 326 | 2.0 | 7.0 | 0.00 | 0.00 | 0.00 | 59 | |
| 20260830172026 | 94 | 329 | 2.0 | 8.0 | 0.00 | 0.00 | 0.00 | 58 | |
| 20260830171521 | 94 | 277 | 2.0 | 9.0 | 0.00 | 0.00 | 0.00 | 58 | |
| 20260830171021 | 93 | 352 | 0.0 | 7.0 | 0.00 | 0.00 | 0.00 | 58 | |
| 20260830170520 | 92 | 2 | 1.0 | 3.0 | 0.00 | 0.00 | 0.00 | 60 | |
| 20260830170019 | 92 | 312 | 5.0 | 8.0 | 0.00 | 0.00 | 0.00 | 60 | |
| 20260830165515 | 92 | 6 | 4.0 | 7.0 | 0.00 | 0.00 | 0.00 | 61 | |
| 20260830165011 | 91 | 350 | 1.0 | 6.0 | 0.00 | 0.00 | 0.00 | 63 | |
| 20260830164507 | 91 | 35 | 6.0 | 10.0 | 0.00 | 0.00 | 0.00 | 64 | |
| 20260830164003 | 91 | 343 | 2.0 | 7.0 | 0.00 | 0.00 | 0.00 | 64 | |
| 20260830163500 | 93 | 354 | 1.0 | 9.0 | 0.00 | 0.00 | 0.00 | 62 | |
| 20260830162959 | 92 | 32 | 2.0 | 3.0 | 0.00 | 0.00 | 0.00 | 62 | |
| 20260830162455 | 91 | 59 | 2.0 | 7.0 | 0.00 | 0.00 | 0.00 | 65 | |
| 20260830161954 | 93 | 23 | 4.0 | 8.0 | 0.00 | 0.00 | 0.00 | 62 | |
| 20260830161449 | 93 | 303 | 2.0 | 7.0 | 0.00 | 0.00 | 0.00 | 61 | |
| 20260830160944 | 93 | 7 | 2.0 | 8.0 | 0.00 | 0.00 | 0.00 | 61 | |
| 20260830160441 | 93 | 2 | 4.0 | 7.0 | 0.00 | 0.00 | 0.00 | 59 | |
| 20260830155935 | 93 | 337 | 1.0 | 6.0 | 0.00 | 0.00 | 0.00 | 60 | |
| 20260830155432 | 93 | 13 | 3.0 | 9.0 | 0.00 | 0.00 | 0.00 | 58 | |
| 20260830154931 | 93 | 40 | 2.0 | 4.0 | 0.00 | 0.00 | 0.00 | 59 | |
| 20260830154428 | 94 | 50 | 4.0 | 8.0 | 0.00 | 0.00 | 0.00 | 57 | |
| 20260830153924 | 93 | 2 | 1.0 | 4.0 | 0.00 | 0.00 | 0.00 | 57 | |
| 20260830153419 | 93 | 331 | 1.0 | 6.0 | 0.00 | 0.00 | 0.00 | 59 | |
| 20260830152918 | 93 | 84 | 2.0 | 6.0 | 0.00 | 0.00 | 0.00 | 59 | |
| 20260830152414 | 93 | 352 | 3.0 | 7.0 | 0.00 | 0.00 | 0.00 | 58 | |
| 20260830151907 | 93 | 40 | 2.0 | 6.0 | 0.00 | 0.00 | 0.00 | 57 | |
| 20260830151407 | 93 | 49 | 4.0 | 7.0 | 0.00 | 0.00 | 0.00 | 58 | |
| 20260830150902 | 93 | 89 | 1.0 | 4.0 | 0.00 | 0.00 | 0.00 | 59 | |
| 20260830150402 | 92 | 24 | 2.0 | 4.0 | 0.00 | 0.00 | 0.00 | 60 | |
| 20260830145856 | 92 | 124 | 3.0 | 9.0 | 0.00 | 0.00 | 0.00 | 59 | |
| 20260830145351 | 91 | 43 | 1.0 | 2.0 | 0.00 | 0.00 | 0.00 | 62 | |
| 20260830144846 | 91 | 0 | 2.0 | 3.0 | 0.00 | 0.00 | 0.00 | 61 | |
| 20260830144342 | 91 | 9 | 3.0 | 6.0 | 0.00 | 0.00 | 0.00 | 62 | |
| 20260830143838 | 91 | 88 | 1.0 | 6.0 | 0.00 | 0.00 | 0.00 | 63 | |
| 20260830143337 | 92 | 51 | 4.0 | 6.0 | 0.00 | 0.00 | 0.00 | 63 | |
| 20260830142831 | 92 | 350 | 0.0 | 3.0 | 0.00 | 0.00 | 0.00 | 62 | |
| 20260830142326 | 92 | 343 | 1.0 | 6.0 | 0.00 | 0.00 | 0.00 | 61 | |
| 20260830141823 | 92 | 9 | 1.0 | 4.0 | 0.00 | 0.00 | 0.00 | 62 | |
| 20260830141323 | 92 | 88 | 1.0 | 3.0 | 0.00 | 0.00 | 0.00 | 63 | |
| 20260830140818 | 91 | 209 | 1.0 | 3.0 | 0.00 | 0.00 | 0.00 | 64 | |
| 20260830140313 | 89 | 346 | 2.0 | 6.0 | 0.00 | 0.00 | 0.00 | 67 | |
| 20260830135807 | 90 | 11 | 4.0 | 6.0 | 0.00 | 0.00 | 0.00 | 68 | |
| 20260830135306 | 89 | 349 | 1.0 | 4.0 | 0.00 | 0.00 | 0.00 | 71 | |
| 20260830134759 | 89 | 1 | 2.0 | 4.0 | 0.00 | 0.00 | 0.00 | 72 | |
| 20260830134258 | 89 | 80 | 4.0 | 6.0 | 0.00 | 0.00 | 0.00 | 70 | |
| 20260830133754 | 90 | 67 | 1.0 | 6.0 | 0.00 | 0.00 | 0.00 | 68 | |
| 20260830133250 | 89 | 209 | 3.0 | 4.0 | 0.00 | 0.00 | 0.00 | 68 | |
| 20260830132745 | 90 | 9 | 1.0 | 6.0 | 0.00 | 0.00 | 0.00 | 67 | |
| 20260830132241 | 89 | 19 | 1.0 | 4.0 | 0.00 | 0.00 | 0.00 | 68 | |
| 20260830131739 | 89 | 101 | 2.0 | 4.0 | 0.00 | 0.00 | 0.00 | 69 | |
| 20260830131234 | 89 | 242 | 2.0 | 3.0 | 0.00 | 0.00 | 0.00 | 69 | |
| 20260830130730 | 89 | 78 | 1.0 | 3.0 | 0.00 | 0.00 | 0.00 | 69 | |
| 20260830130229 | 89 | 3 | 5.0 | 7.0 | 0.00 | 0.00 | 0.00 | 69 | |
| 20260830125724 | 89 | 6 | 2.0 | 4.0 | 0.00 | 0.00 | 0.00 | 71 | |
| 20260830125219 | 88 | 347 | 0.0 | 3.0 | 0.00 | 0.00 | 0.00 | 71 | |
| 20260830124716 | 87 | 178 | 2.0 | 3.0 | 0.00 | 0.00 | 0.00 | 74 | |
| 20260830124212 | 86 | 343 | 1.0 | 4.0 | 0.00 | 0.00 | 0.00 | 76 | |
| 20260830123709 | 85 | 227 | 2.0 | 3.0 | 0.00 | 0.00 | 0.00 | 78 | |
| 20260830123205 | 84 | 268 | 2.0 | 3.0 | 0.00 | 0.00 | 0.00 | 80 | |
| 20260830122702 | 84 | 334 | 1.0 | 3.0 | 0.00 | 0.00 | 0.00 | 80 |